CW0352 Weather Reports


Display with metric or nautical units.
time (UTC)temp
F
wind
direction
speed
MPH
gust
MPH
rain 1hr
in
rain 24hr
in
rain mn
in
humidity
%
barometer
mb
20260506173953 44 0 1.0 2.0 0.00 0.46 0.27 88 1022.6
20260506173437 44 0 1.0 4.0 0.00 0.46 0.27 87 1022.7
20260506172929 44 0 1.0 4.0 0.00 0.46 0.27 87 1022.6
20260506172429 43 0 1.0 4.0 0.00 0.46 0.27 88 1022.5
20260506172147 43 0 2.0 4.0 0.00 0.46 0.27 87 1022.6
20260506172031 43 0 2.0 4.0 0.00 0.46 0.27 87 1022.6
20260506171425 43 0 1.0 4.0 0.00 0.46 0.27 89 1022.5
20260506170905 43 0 2.0 4.0 0.00 0.46 0.27 89 1022.5
20260506170406 42 0 2.0 5.0 0.00 0.46 0.27 89 1022.6
20260506165845 42 0 2.0 5.0 0.00 0.46 0.27 90 1022.6
20260506165326 42 0 2.0 6.0 0.00 0.46 0.27 90 1022.6
20260506165034 42 0 2.0 6.0 0.00 0.46 0.27 90 1022.6
20260506164943 42 0 2.0 5.0 0.00 0.46 0.27 91 1022.6
20260506164911 42 0 2.0 6.0 0.00 0.46 0.27 90 1022.6
20260506164409 42 0 2.0 5.0 0.00 0.46 0.27 91 1022.6
20260506163758 42 0 3.0 5.0 0.00 0.46 0.27 90 1022.6
20260506163259 42 0 2.0 6.0 0.00 0.46 0.27 91 1022.4
20260506162757 42 0 2.0 6.0 0.00 0.46 0.27 91 1022.4
20260506162258 42 0 2.0 5.0 0.00 0.46 0.27 91 1022.3
20260506161733 42 0 1.0 4.0 0.00 0.46 0.27 92 1022.2
20260506161210 42 0 1.0 3.0 0.00 0.46 0.27 92 1022.1
20260506160700 42 0 1.0 4.0 0.00 0.46 0.27 93 1022.1
20260506160138 42 0 1.0 4.0 0.00 0.46 0.27 93 1022.0
20260506155601 42 0 1.0 3.0 0.00 0.46 0.27 93 1021.9
20260506155036 42 0 1.0 3.0 0.00 0.46 0.27 93 1021.7
20260506154537 42 0 1.0 4.0 0.00 0.46 0.27 93 1021.6
20260506154301 41 0 1.0 4.0 0.00 0.46 0.27 93 1021.6
20260506154137 41 0 1.0 4.0 0.00 0.46 0.27 93 1021.6
20260506153534 41 0 3.0 6.0 0.00 0.46 0.27 93 1021.5
20260506153512 41 0 2.0 5.0 0.00 0.46 0.27 94 1021.6
20260506153420 41 0 3.0 6.0 0.00 0.46 0.27 93 1021.5
20260506152424 40 0 2.0 6.0 0.00 0.46 0.27 94 1021.5
20260506151903 40 0 2.0 5.0 0.01 0.46 0.27 94 1021.5
20260506151337 40 0 2.0 6.0 0.01 0.46 0.27 94 1021.6
20260506150819 39 0 2.0 5.0 0.01 0.46 0.27 94 1021.5
20260506150245 39 0 2.0 6.0 0.01 0.46 0.27 93 1021.5
20260506145740 39 0 2.0 6.0 0.01 0.46 0.27 94 1021.5
20260506145216 38 0 2.0 6.0 0.01 0.46 0.27 94 1021.5
20260506144650 38 0 1.0 4.0 0.01 0.46 0.27 94 1021.6
20260506144150 38 0 1.0 3.0 0.02 0.46 0.27 94 1021.6
20260506143644 38 0 1.0 3.0 0.02 0.46 0.27 93 1021.6
20260506143359 37 0 0.0 1.0 0.02 0.46 0.27 93 1021.6
20260506143246 37 0 0.0 1.0 0.02 0.46 0.27 93 1021.6
20260506142614 37 0 0.0 1.0 0.03 0.46 0.27 94 1021.7
20260506142048 37 0 0.0 1.0 0.02 0.45 0.27 94 1021.7
20260506141813 37 0 0.0 1.0 0.03 0.45 0.26 94 1021.7
20260506141651 37 0 0.0 1.0 0.03 0.45 0.26 94 1021.7
20260506141024 37 0 0.0 1.0 0.03 0.45 0.26 94 1021.9
20260506140454 37 0 0.0 2.0 0.03 0.45 0.26 93 1021.9
20260506135927 37 0 0.0 2.0 0.03 0.45 0.26 94 1021.7
20260506135402 37 0 0.0 0.0 0.03 0.45 0.26 94 1021.6
20260506134835 37 0 0.0 0.0 0.03 0.45 0.26 93 1021.6
20260506134308 36 0 0.0 0.0 0.02 0.44 0.25 93 1021.5
20260506133805 36 0 0.0 0.0 0.03 0.44 0.25 94 1021.5
20260506133303 36 0 0.0 0.0 0.03 0.44 0.25 94 1021.6
20260506132759 36 0 0.0 0.0 0.02 0.43 0.24 94 1021.5
20260506132255 36 0 0.0 1.0 0.03 0.43 0.24 93 1021.5
20260506131745 36 0 0.0 0.0 0.03 0.43 0.24 93 1021.5
20260506131248 36 0 0.0 1.0 0.02 0.42 0.23 93 1021.4
20260506130715 36 0 0.0 1.0 0.03 0.42 0.23 93 1021.3
20260506130213 36 0 0.0 1.0 0.03 0.42 0.23 93 1021.2
20260506125708 36 0 0.0 1.0 0.03 0.42 0.23 93 1021.2
20260506125638 36 0 0.0 1.0 0.04 0.42 0.23 93 1021.2
20260506125247 36 0 0.0 1.0 0.04 0.42 0.23 93 1021.2
20260506124618 36 0 0.0 2.0 0.04 0.42 0.23 93 1021.0
20260506124113 36 0 0.0 2.0 0.04 0.41 0.22 93 1021.0
20260506123821 35 0 0.0 2.0 0.04 0.41 0.22 93 1021.0
20260506123651 35 0 0.0 2.0 0.04 0.41 0.22 93 1021.0
20260506123046 35 0 0.0 2.0 0.04 0.41 0.22 93 1020.8
20260506122521 36 0 0.0 2.0 0.04 0.40 0.21 93 1020.8
20260506122019 36 0 0.0 3.0 0.04 0.40 0.21 93 1020.8
20260506121450 36 0 0.0 3.0 0.05 0.40 0.21 93 1020.6
20260506120947 36 0 0.0 2.0 0.04 0.39 0.20 93 1020.5
20260506120429 36 0 0.0 2.0 0.04 0.39 0.20 93 1020.5
20260506115938 36 0 1.0 2.0 0.05 0.39 0.20 93 1020.5
20260506115741 36 0 1.0 4.0 0.04 0.38 0.19 93 1020.5
20260506114923 36 0 0.0 4.0 0.05 0.38 0.19 93 1020.5
20260506114405 36 0 0.0 3.0 0.06 0.38 0.19 93 1020.3
20260506113901 36 0 0.0 3.0 0.05 0.37 0.18 93 1020.3
20260506113838 36 0 0.0 2.0 0.06 0.37 0.18 93 1020.3
20260506113453 36 0 0.0 2.0 0.06 0.37 0.18 93 1020.3
20260506112850 36 0 1.0 3.0 0.06 0.37 0.18 93 1020.2
20260506112323 36 0 1.0 3.0 0.06 0.36 0.17 93 1020.1
20260506111756 36 0 1.0 3.0 0.06 0.36 0.17 93 1020.2
20260506111257 37 0 1.0 3.0 0.05 0.35 0.16 93 1020.1
20260506110727 37 0 1.0 2.0 0.05 0.35 0.16 93 1020.1
20260506110225 37 0 0.0 2.0 0.04 0.34 0.15 93 1020.1
20260506105727 37 0 0.0 1.0 0.05 0.34 0.15 93 1020.1
20260506105222 37 0 0.0 1.0 0.04 0.33 0.14 93 1020.1
20260506104725 37 0 0.0 2.0 0.04 0.33 0.14 93 1020.0
20260506104216 37 0 0.0 2.0 0.03 0.32 0.13 93 1019.9
20260506103650 37 0 0.0 1.0 0.03 0.31 0.12 93 1019.9
20260506103145 37 0 0.0 0.0 0.03 0.31 0.12 93 1019.8
20260506102619 37 0 0.0 0.0 0.02 0.30 0.12 93 1019.8
20260506102056 38 0 0.0 0.0 0.03 0.30 0.11 93 1019.7
20260506101548 38 0 0.0 0.0 0.03 0.30 0.11 93 1019.4
20260506101022 38 0 0.0 2.0 0.03 0.30 0.11 93 1019.4
20260506100458 38 0 0.0 2.0 0.03 0.30 0.11 93 1019.5
20260506095952 38 0 0.0 2.0 0.03 0.30 0.11 93 1019.5
20260506095427 38 0 1.0 2.0 0.02 0.29 0.10 93 1019.3
20260506094923 38 0 0.0 2.0 0.02 0.29 0.10 93 1019.3
20260506094422 38 0 0.0 2.0 0.02 0.29 0.10 93 1019.2
20260506093917 38 0 0.0 0.0 0.01 0.28 0.09 93 1019.3
20260506093413 38 0 0.0 0.0 0.01 0.28 0.09 93 1019.2
20260506093107 38 0 0.0 0.0 0.01 0.28 0.09 93 1019.1
20260506092951 38 0 0.0 0.0 0.01 0.28 0.09 93 1019.1
20260506092337 38 0 0.0 1.0 0.01 0.28 0.09 93 1019.1
20260506092058 37 0 0.0 1.0 0.00 0.27 0.08 93 1019.1
20260506091931 37 0 0.0 1.0 0.00 0.27 0.08 93 1019.1
20260506091334 37 0 0.0 1.0 0.00 0.27 0.08 93 1019.0
20260506090824 37 0 0.0 2.0 0.00 0.27 0.08 93 1018.9
20260506090324 37 0 0.0 2.0 0.00 0.27 0.08 93 1018.8
20260506085815 37 0 0.0 0.0 0.00 0.27 0.08 93 1018.9
20260506085252 37 0 0.0 0.0 0.00 0.27 0.08 93 1018.9
20260506084745 37 0 0.0 0.0 0.00 0.27 0.08 93 1018.8
20260506084244 37 0 0.0 2.0 0.00 0.27 0.08 93 1018.8
20260506083728 37 0 0.0 2.0 0.01 0.27 0.08 93 1018.8
20260506083222 37 0 1.0 2.0 0.01 0.27 0.08 93 1018.8
20260506082657 37 0 1.0 4.0 0.01 0.27 0.08 93 1018.7
20260506082138 37 0 1.0 4.0 0.01 0.27 0.08 93 1018.8
20260506081635 38 0 1.0 3.0 0.01 0.27 0.08 93 1018.9
20260506081133 38 0 1.0 3.0 0.01 0.27 0.08 93 1018.7
20260506080633 38 0 1.0 3.0 0.01 0.27 0.08 93 1018.8
20260506080143 38 0 0.0 2.0 0.01 0.27 0.08 93 1019.0
20260506073028 38 0 0.0 3.0 0.01 0.26 0.07 93 1019.0
20260506072529 38 0 0.0 2.0 0.02 0.26 0.07 93 1019.2
20260506072015 38 0 0.0 2.0 0.02 0.26 0.07 93 1019.1
20260506071459 38 0 0.0 2.0 0.02 0.26 0.07 93 1019.1
20260506071005 38 0 1.0 3.0 0.02 0.26 0.07 93 1019.1
20260506070456 38 0 1.0 3.0 0.03 0.26 0.07 93 1019.0
20260506062400 38 0 1.0 3.0 0.04 0.24 0.05 93 1019.2
20260506062127 38 0 1.0 4.0 0.04 0.24 0.05 93 1019.2
20260506062001 38 0 1.0 4.0 0.04 0.24 0.05 93 1019.2
20260506061330 38 0 1.0 4.0 0.04 0.24 0.05 93 1019.1
20260506060803 38 0 2.0 4.0 0.05 0.24 0.05 93 1018.9
20260506060247 38 0 1.0 4.0 0.04 0.23 0.04 93 1018.9
20260506060152 38 0 1.0 3.0 0.05 0.23 0.04 93 1018.9
20260506051051 38 0 1.0 4.0 0.04 0.19 0.00 93 1018.7
20260506050420 39 0 1.0 4.0 0.04 0.19 0.00 92 1018.6
20260506044704 39 0 2.0 4.0 0.03 0.17 0.17 92 1018.7
20260506043845 39 0 2.0 4.0 0.03 0.17 0.17 92 1018.8
20260506043319 39 0 2.0 5.0 0.03 0.16 0.17 92 1018.8
20260506042819 39 0 2.0 5.0 0.03 0.16 0.16 92 1018.8
20260506042313 39 0 2.0 6.0 0.04 0.16 0.16 92 1018.7
20260506042021 39 0 2.0 6.0 0.06 0.16 0.16 92 1018.6
20260506041851 39 0 2.0 6.0 0.06 0.16 0.16 92 1018.6
20260506041224 39 0 2.0 5.0 0.05 0.15 0.15 92 1018.7
20260506040730 39 0 2.0 10.0 0.05 0.15 0.15 92 1018.6
20260506040200 39 0 4.0 8.0 0.06 0.15 0.15 92 1018.6
20260506035909 39 0 5.0 10.0 0.05 0.14 0.14 92 1018.3
20260506035751 39 0 5.0 10.0 0.05 0.14 0.14 92 1018.3
20260506035150 39 0 4.0 10.0 0.05 0.14 0.14 92 1018.2
20260506034641 40 0 5.0 12.0 0.05 0.14 0.14 92 1018.4
20260506034358 40 0 5.0 12.0 0.06 0.14 0.14 92 1018.4
20260506034244 40 0 5.0 12.0 0.06 0.14 0.14 92 1018.4
20260506033636 40 0 5.0 11.0 0.06 0.14 0.14 92 1018.4
20260506033131 40 0 4.0 10.0 0.06 0.13 0.13 91 1018.6
20260506032628 41 0 3.0 9.0 0.05 0.12 0.12 92 1018.1
20260506032101 41 0 3.0 8.0 0.04 0.11 0.11 92 1018.2
20260506031558 41 0 3.0 8.0 0.03 0.10 0.10 91 1018.1
20260506031333 41 0 2.0 9.0 0.04 0.10 0.10 92 1017.8
20260506030504 41 0 3.0 9.0 0.04 0.10 0.10 92 1017.6
20260506030015 41 0 2.0 9.0 0.03 0.09 0.09 91 1017.4
20260506025456 42 0 2.0 8.0 0.03 0.09 0.09 91 1017.4
20260506024928 42 0 1.0 4.0 0.04 0.09 0.09 91 1017.4
20260506024403 42 0 1.0 3.0 0.04 0.09 0.09 91 1017.5
20260506023901 42 0 0.0 2.0 0.04 0.08 0.08 91 1017.6
20260506023357 42 0 0.0 1.0 0.04 0.08 0.08 91 1017.4
20260506022831 42 0 0.0 1.0 0.03 0.07 0.07 91 1017.4
20260506022330 42 0 0.0 1.0 0.03 0.07 0.07 91 1017.4
20260506021801 42 0 0.0 0.0 0.03 0.07 0.07 91 1017.4
20260506021257 42 0 0.0 0.0 0.04 0.07 0.07 91 1017.2
20260506020734 42 0 0.0 0.0 0.03 0.06 0.06 91 1017.0
20260506020205 42 0 0.0 1.0 0.03 0.06 0.06 91 1016.8
20260506015638 42 0 0.0 2.0 0.03 0.06 0.06 90 1016.9
20260506015143 42 0 0.0 2.0 0.03 0.05 0.05 90 1016.5
20260506014631 42 0 0.0 2.0 0.03 0.05 0.05 90 1016.5
20260506014458 42 0 0.0 2.0 0.02 0.04 0.04 90 1016.4
20260506014427 42 0 0.0 2.0 0.02 0.04 0.04 90 1016.4
20260506013601 42 0 1.0 4.0 0.02 0.04 0.04 90 1016.3
20260506013301 42 0 1.0 4.0 0.02 0.04 0.04 90 1016.3
20260506013145 42 0 1.0 4.0 0.02 0.04 0.04 90 1016.3
20260506012802 42 0 1.0 3.0 0.02 0.04 0.04 90 1016.1
20260506012647 42 0 1.0 3.0 0.02 0.04 0.04 90 1016.1
20260506012040 42 0 1.0 3.0 0.02 0.04 0.04 90 1016.1
20260506011543 42 0 0.0 3.0 0.02 0.04 0.04 89 1016.1
20260506011534 42 0 1.0 3.0 0.02 0.03 0.03 89 1016.0
20260506011144 42 0 1.0 3.0 0.02 0.03 0.03 89 1016.0
20260506010536 42 0 0.0 3.0 0.02 0.03 0.03 89 1015.9
20260506010037 42 0 0.0 3.0 0.02 0.03 0.03 89 1016.1
20260506005741 42 0 0.0 3.0 0.01 0.02 0.02 89 1016.0
20260506005622 42 0 1.0 3.0 0.02 0.03 0.03 89 1016.0
20260506005116 42 0 0.0 3.0 0.01 0.02 0.02 89 1016.0
20260506004822 43 0 1.0 2.0 0.01 0.02 0.02 89 1015.8
20260506004746 43 0 1.0 2.0 0.01 0.02 0.02 89 1015.8
20260506003943 43 0 0.0 2.0 0.01 0.02 0.02 88 1015.9
20260506003415 43 0 0.0 3.0 0.01 0.02 0.02 88 1015.9
20260506002917 43 0 1.0 5.0 0.01 0.02 0.02 88 1015.9
20260506002424 43 0 2.0 5.0 0.01 0.02 0.02 87 1015.8
20260506001913 43 0 2.0 6.0 0.01 0.02 0.02 87 1015.7
20260506001412 43 0 1.0 6.0 0.01 0.02 0.02 87 1015.8
20260506000912 43 0 0.0 3.0 0.00 0.01 0.01 87 1015.9
20260506000411 43 0 1.0 3.0 0.00 0.01 0.01 87 1015.8
20260505235845 43 0 1.0 3.0 0.00 0.01 0.01 86 1015.7
20260505235317 44 0 0.0 4.0 0.00 0.01 0.01 86 1015.8
20260505235023 44 0 1.0 4.0 0.00 0.01 0.01 85 1015.8
20260505234907 44 0 1.0 4.0 0.00 0.01 0.01 85 1015.8
20260505234241 44 0 1.0 5.0 0.00 0.01 0.01 85 1015.7
20260505233738 44 0 1.0 5.0 0.00 0.01 0.01 85 1015.8
20260505233231 44 0 1.0 4.0 0.00 0.01 0.01 85 1015.7
20260505232725 44 0 1.0 4.0 0.00 0.01 0.01 84 1015.7
20260505232229 44 0 1.0 4.0 0.00 0.01 0.01 85 1015.7
20260505231954 44 0 1.0 4.0 0.00 0.01 0.01 85 1015.8
20260505231154 44 0 1.0 5.0 0.00 0.01 0.01 84 1015.6
20260505230640 44 0 1.0 5.0 0.00 0.01 0.01 84 1015.6
20260505230149 44 0 0.0 3.0 0.00 0.01 0.01 84 1015.6
20260505225634 44 0 0.0 4.0 0.00 0.01 0.01 84 1015.7
20260505225506 44 0 1.0 4.0 0.00 0.01 0.01 84 1015.6
20260505225428 44 0 1.0 4.0 0.00 0.01 0.01 84 1015.6
20260505224630 44 0 1.0 4.0 0.00 0.01 0.01 84 1015.6
20260505224122 44 0 0.0 5.0 0.01 0.01 0.01 85 1015.7
20260505223619 44 0 0.0 5.0 0.01 0.01 0.01 86 1015.5
20260505223118 44 0 1.0 5.0 0.01 0.01 0.01 85 1015.6
20260505222552 44 0 1.0 5.0 0.01 0.01 0.01 85 1015.6
20260505222028 44 0 1.0 4.0 0.01 0.01 0.01 85 1015.7
20260505221725 44 0 2.0 6.0 0.01 0.01 0.01 85 1015.7
20260505221609 44 0 2.0 6.0 0.01 0.01 0.01 85 1015.7
20260505220936 44 0 2.0 6.0 0.01 0.01 0.01 85 1015.8
20260505220432 44 0 2.0 5.0 0.01 0.01 0.01 85 1015.9
20260505215906 44 0 1.0 5.0 0.01 0.01 0.01 86 1016.0
20260505215338 44 0 2.0 4.0 0.01 0.01 0.01 85 1016.0
20260505214808 44 0 2.0 4.0 0.01 0.01 0.01 85 1015.9
20260505214246 44 0 1.0 4.0 0.00 0.00 0.01 86 1016.0
20260505214238 44 0 1.0 4.0 0.00 0.00 0.00 86 1016.0
20260505213849 44 0 1.0 4.0 0.00 0.00 0.00 86 1016.0
20260505213242 44 0 2.0 6.0 0.00 0.00 0.00 85 1016.0
20260505212716 44 0 3.0 6.0 0.00 0.00 0.00 85 1016.0
20260505212152 44 0 2.0 5.0 0.00 0.00 0.00 84 1016.0
20260505211647 44 0 2.0 6.0 0.00 0.00 0.00 84 1016.0
20260505211122 44 0 3.0 6.0 0.00 0.00 0.00 83 1016.3
20260505210557 44 0 4.0 8.0 0.00 0.00 0.00 84 1016.1
20260505210030 44 0 3.0 6.0 0.00 0.00 0.00 83 1016.4
20260505205502 44 0 3.0 6.0 0.00 0.00 0.00 84 1016.6
20260505204958 44 0 3.0 8.0 0.00 0.00 0.00 83 1016.5
20260505204431 44 0 2.0 8.0 0.00 0.00 0.00 83 1016.5
20260505203929 44 0 3.0 6.0 0.00 0.00 0.00 84 1016.5
20260505203402 44 0 3.0 6.0 0.00 0.00 0.00 83 1016.5
20260505203107 44 0 3.0 6.0 0.00 0.00 0.00 83 1016.5
20260505202940 44 0 3.0 6.0 0.00 0.00 0.00 83 1016.5
20260505202332 44 0 3.0 8.0 0.00 0.00 0.00 82 1016.3
20260505201806 44 0 3.0 8.0 0.00 0.00 0.00 84 1016.1
20260505201239 44 0 4.0 10.0 0.00 0.00 0.00 83 1016.1
20260505200735 45 0 3.0 10.0 0.00 0.00 0.00 84 1016.0
20260505200211 45 0 3.0 8.0 0.00 0.00 0.00 84 1016.0
20260505195707 44 0 3.0 9.0 0.00 0.00 0.00 84 1016.3
20260505195139 44 0 4.0 9.0 0.00 0.00 0.00 83 1016.3
20260505194614 44 0 3.0 8.0 0.00 0.00 0.00 84 1016.4
20260505194048 44 0 3.0 8.0 0.00 0.00 0.00 84 1016.4
20260505193544 44 0 3.0 6.0 0.00 0.00 0.00 84 1016.5
20260505193018 44 0 2.0 6.0 0.00 0.00 0.00 84 1016.6
20260505192513 44 0 2.0 6.0 0.00 0.00 0.00 84 1016.5
20260505191948 44 0 2.0 6.0 0.00 0.00 0.00 83 1016.7
20260505191419 44 0 2.0 6.0 0.00 0.00 0.00 83 1016.6
20260505190916 44 0 2.0 6.0 0.00 0.00 0.00 84 1016.7
20260505190350 44 0 3.0 5.0 0.00 0.00 0.00 83 1016.6
20260505190041 44 0 3.0 8.0 0.00 0.00 0.00 84 1016.6
20260505185926 44 0 3.0 8.0 0.00 0.00 0.00 84 1016.6
20260505185257 44 0 4.0 8.0 0.00 0.00 0.00 83 1016.6
20260505185006 44 0 3.0 5.0 0.00 0.00 0.00 83 1016.8
20260505184834 44 0 3.0 5.0 0.00 0.00 0.00 83 1016.8
20260505184225 44 0 3.0 5.0 0.00 0.00 0.00 83 1016.8
20260505183659 44 0 2.0 5.0 0.00 0.00 0.00 83 1016.8
20260505183156 44 0 3.0 5.0 0.00 0.00 0.00 81 1017.0
20260505182631 44 0 3.0 6.0 0.00 0.00 0.00 81 1017.1
20260505182601 45 0 2.0 6.0 0.00 0.00 0.00 80 1017.1
20260505182208 45 0 2.0 6.0 0.00 0.00 0.00 80 1017.1
20260505181600 45 0 1.0 6.0 0.00 0.00 0.00 82 1017.2
20260505181034 45 0 0.0 4.0 0.00 0.00 0.00 84 1017.4
20260505180533 45 0 1.0 5.0 0.00 0.00 0.00 83 1017.2
20260505180006 45 0 2.0 5.0 0.00 0.00 0.00 82 1017.4
20260505175441 45 0 1.0 4.0 0.00 0.00 0.00 82 1017.4
20260505174940 45 0 1.0 4.0 0.00 0.00 0.00 82 1017.5